TimeEST,TemperatureF,Dew PointF,Humidity,Sea Level PressureIn,VisibilityMPH,Wind Direction,Wind SpeedMPH,Gust SpeedMPH,PrecipitationIn,Events,Conditions,WindDirDegrees,DateUTC
12:51 AM,15.1,-2.0,47,30.28,10.0,NW,9.2,-,N/A,,Partly Cloudy,310,2013-01-27 05:51:00
1:51 AM,15.1,-0.9,49,30.30,10.0,WNW,6.9,-,N/A,,Partly Cloudy,290,2013-01-27 06:51:00
2:51 AM,15.1,-0.0,51,30.31,10.0,WNW,9.2,-,N/A,,Partly Cloudy,290,2013-01-27 07:51:00
3:51 AM,14.0,-0.0,54,30.32,10.0,Variable,6.9,-,N/A,,Partly Cloudy,0,2013-01-27 08:51:00
4:51 AM,12.9,-0.0,56,30.34,10.0,West,4.6,-,N/A,,Partly Cloudy,280,2013-01-27 09:51:00
5:51 AM,10.9,-0.0,61,30.35,10.0,West,3.5,-,N/A,,Partly Cloudy,280,2013-01-27 10:51:00
6:51 AM,12.0,1.0,61,30.36,10.0,WNW,5.8,-,N/A,,Clear,290,2013-01-27 11:51:00
7:51 AM,15.1,1.9,56,30.38,10.0,WNW,9.2,-,N/A,,Clear,300,2013-01-27 12:51:00
8:51 AM,19.0,1.0,46,30.40,10.0,NW,10.4,19.6,N/A,,Clear,310,2013-01-27 13:51:00
9:51 AM,21.9,1.0,40,30.41,10.0,NNW,13.8,21.9,N/A,,Clear,330,2013-01-27 14:51:00
10:51 AM,25.0,1.0,36,30.41,10.0,NNW,11.5,21.9,N/A,,Clear,330,2013-01-27 15:51:00
11:51 AM,27.0,1.0,33,30.41,10.0,NW,15.0,21.9,N/A,,Clear,320,2013-01-27 16:51:00
12:51 PM,28.4,1.4,31,30.39,10.0,NW,12.7,18.4,N/A,,Clear,310,2013-01-27 17:51:00
1:51 PM,30.9,1.0,28,30.39,10.0,WNW,12.7,18.4,N/A,,Clear,300,2013-01-27 18:51:00
2:51 PM,30.9,-0.0,27,30.38,10.0,NNW,10.4,-,N/A,,Partly Cloudy,330,2013-01-27 19:51:00
3:51 PM,30.9,1.0,28,30.39,10.0,WNW,13.8,-,N/A,,Partly Cloudy,300,2013-01-27 20:51:00
4:51 PM,28.9,-0.0,29,30.41,10.0,NW,6.9,-,N/A,,Partly Cloudy,310,2013-01-27 21:51:00
5:51 PM,27.0,-0.0,31,30.44,10.0,WNW,9.2,-,N/A,,Partly Cloudy,300,2013-01-27 22:51:00
6:51 PM,27.0,-0.9,30,30.45,10.0,NW,5.8,-,N/A,,Partly Cloudy,310,2013-01-27 23:51:00
7:51 PM,25.0,-0.0,34,30.47,10.0,WNW,6.9,-,N/A,,Partly Cloudy,300,2013-01-28 00:51:00
8:51 PM,24.1,-0.9,34,30.46,10.0,WNW,5.8,-,N/A,,Partly Cloudy,300,2013-01-28 01:51:00
9:51 PM,23.0,-0.9,35,30.46,10.0,WNW,5.8,-,N/A,,Scattered Clouds,300,2013-01-28 02:51:00
10:51 PM,24.1,-0.0,35,30.48,10.0,WNW,3.5,-,N/A,,Mostly Cloudy,300,2013-01-28 03:51:00
11:51 PM,21.9,1.0,40,30.47,10.0,West,4.6,-,N/A,,Scattered Clouds,280,2013-01-28 04:51:00